User: anonymous   Login
Location: Mentone
(34.5413°N, 85.5351°W)
Time: 12:44:52
(UTC-05:00)
Language:

Cosmos 1703 - Orbit

View from above orbital plane
View from above orbital plane
View from above satellite
View from above satellite

Ground track
Ground track

The orbit data is extracted from the following two-line orbital elements,

1 16262U 85108A   15087.17256230  .00003788  00000-0  24491-3 0  9995
2 16262 082.4920 325.9647 0011259 198.5492 161.5327 15.07894452596400
Epoch (UTC): 28 March 2015 04:08:29
Eccentricity: 0.0011259
inclination: 82.4920°
perigee height: 535 km
apogee height: 550 km
right ascension of ascending node: 325.9647°
argument of perigee: 198.5492°
revolutions per day: 15.07894452
mean anomaly at epoch: 161.5327°
orbit number at epoch: 59640

The dashed part of the orbit path shows where the satellite is in the earth's shadow,  

DLR